Home > Weather > Bad Kreuznach > Past weeks

Flag for Germany Weather for the Past 2 Weeks in Bad Kreuznach, Rhineland-Palatinate, Germany

Now
47 °F

Clear.


Feels Like: 45 °F
Forecast: 47 / 73 °F
Wind: 6 mph from Southeast

Location: Hahn

Current Time: May 6, 2016 at 4:49:58 AM

Latest Report: May 6, 2016 at 4:00 AM


Visibility: N/A

Pressure: 30.05 "Hg

Humidity: 82%

Dew Point: 42 °F

Location of Bad KreuznachLocation

Historic Weather in Bad Kreuznach — Graph

°F

Bad Kreuznach Temperature Yesterday

Maximum temperature yesterday: 60 °F (at 7:00 PM)
Minimum temperature yesterday: 39 °F (at 6:00 AM)
Average temperature yesterday: 50 °F

High & Low Weather Summary for the Past Weeks

 TemperatureHumidityPressure
High63 °F (Apr 21, 6:00 PM)100% (Apr 23, 12:00 PM)30.41 "Hg (Apr 23, 12:00 PM)
Low29 °F (Apr 24, 6:00 AM)29% (Apr 21, 6:00 PM)29.61 "Hg (Apr 26, 3:00 PM)
Average44 °F72%30.07 "Hg
* Reported Apr 21 3:00 AM — May 6 3:00 AM, Bad Kreuznach, Weather by CustomWeather, © 2016

Note: Actual official high and low records may vary slightly from our data, if they occured in-between our weather recording intervals... More about our weather records

Advertising

Bad Kreuznach Weather History for the Previous 24 Hours

Scroll right to see more
 ConditionsComfort  
Time TempWeatherWind HumidityBarometerVisibility
3:00 AM
Fri, May 6
49 °FClear.7 mph77%30.05 "HgN/A
1:00 AM50 °FClear.6 mph74%30.07 "HgN/A
12:00 AM51 °FClear.6 mph73%30.08 "HgN/A
10:00 PM
Thu, May 5
56 °FClear.7 mph60%30.08 "HgN/A
9:00 PM57 °FClear.5 mph56%30.08 "HgN/A
7:00 PM60 °FSunny.8 mph51%30.09 "HgN/A
6:00 PM60 °FSunny.7 mph49%30.11 "HgN/A
4:00 PM60 °FSunny.8 mph51%30.15 "HgN/A
3:00 PM57 °FSunny.8 mph53%30.18 "HgN/A
1:00 PM55 °FPassing clouds.9 mph54%30.22 "Hg43 mi
12:00 PM53 °FPassing clouds.8 mph49%30.24 "Hg43 mi
10:00 AM49 °FPassing clouds.8 mph60%30.28 "Hg37 mi
9:00 AM45 °FPassing clouds.6 mph65%30.31 "Hg37 mi
7:00 AM40 °FPassing clouds.3 mph65%30.34 "Hg37 mi
6:00 AM39 °FPassing clouds.3 mph67%30.35 "Hg37 mi
4:00 AM42 °FClear.3 mph59%30.34 "HgN/A
Weather by CustomWeather, © 2016

See weather overviewHow to use our weather pages